Location: ???????
(55.3754°N, 39.3545°E)
Time: 21:35:23
(UTC+00:00)

CZ-2C R/B - Pass Details

Date: 14 April 2026
Orbit: 781 x 868 km, 98.4° (Epoch: 16 May)

Event Time Altitude Azimuth Distance (km) Brightness Sun altitude
Exits shadow 22:44:51 27° 262° (W) 1,579 3.8 -22.7°
Maximum altitude 22:45:13 28° 269° (W) 1,571 3.9 -22.7°
Drops below altitude 10° 22:49:54 10° 327° (NNW) 2,479 5.5 -22.4°
Sets 22:52:37 0° 339° (NNW) 3,405 6.5 -22.3°
